Tulsa, OK

12:42 AM CDT on May 23, 2018 (GMT -0500)
Tulsa International

Weather History for KTUL - February, 2015

Change the Weather History Date:

Tuesday, February 3, 2015

  Actual Average Record
Temperature  
Mean Temperature 41 °F 39 °F  
Max Temperature 58 °F 50 °F 79 °F (1934)
Min Temperature 24 °F 29 °F -6 °F (2011)
Degree Days  
Heating Degree Days 24 26  
Month to date heating degree days 98 78  
Since 1 July heating degree days 2308 2351  
Moisture  
Dew Point 24 °F    
Average Humidity 51    
Maximum Humidity 69    
Minimum Humidity 32    
Precipitation  
Precipitation 0.00 in 0.05 in 0.84 in (2012)
Month to date precipitation 0.11 0.16  
Year to date precipitation 0.86 1.82  
Sea Level Pressure  
Sea Level Pressure 30.16 in    
Wind  
Wind Speed 13 mph (South)    
Max Wind Speed 22 mph    
Max Gust Speed 28 mph    
Visibility 10 miles    
Events      
T = Trace of Precipitation, MM = Missing Value Source: NWS Daily Summary

Daily Weather History Graph

Daily Weather History Graph

Search for Another Location

Airport or City:

Astronomy

Feb. 03, 2015 Rise Set
Actual Time 7:23 AM CST 5:52 PM CST
Civil Twilight 6:56 AM CST 6:19 PM CST
Nautical Twilight 6:25 AM CST 6:49 PM CST
Astronomical Twilight 5:55 AM CST 7:19 PM CST
Moon 5:57 PM CST (2/3) 6:53 AM CST (2/3)
Length of Visible Light 11h 22m
Length of Day
10h 29m
Full, 100% of the Moon is Illuminated
Feb 3
Full
Feb 3
Full
Feb 11
Last Quarter
Feb 18
New
Feb 25
First Quarter

Hourly Weather History & Observations

Time (CST) Temp. Windchill Dew Point Humidity Pressure Visibility Wind Dir Wind Speed Gust Speed Precip Events Conditions
12:53 AM 28.9 °F 19.2 °F 15.1 °F 56% 30.27 in 10.0 mi South 11.5 mph - N/A   Clear
1:53 AM 28.9 °F 21.1 °F 16.0 °F 58% 30.25 in 10.0 mi South 8.1 mph - N/A   Clear
2:53 AM 28.0 °F 20.0 °F 18.0 °F 66% 30.25 in 10.0 mi South 8.1 mph - N/A   Clear
3:53 AM 28.0 °F 20.0 °F 18.0 °F 66% 30.22 in 10.0 mi SSE 8.1 mph - N/A   Clear
4:53 AM 26.1 °F 21.9 °F 18.0 °F 71% 30.25 in 10.0 mi ESE 3.5 mph - N/A   Clear
5:53 AM 27.0 °F 18.7 °F 18.0 °F 69% 30.25 in 10.0 mi South 8.1 mph - N/A   Clear
6:53 AM 28.0 °F 18.6 °F 19.0 °F 69% 30.26 in 10.0 mi South 10.4 mph - N/A   Partly Cloudy
7:53 AM 30.2 °F 20.8 °F 19.4 °F 64% 30.23 in 10.0 mi South 11.5 mph - N/A   Partly Cloudy
8:53 AM 34.0 °F 24.2 °F 21.0 °F 59% 30.25 in 10.0 mi South 15.0 mph - N/A   Partly Cloudy
9:53 AM 39.0 °F 30.3 °F 21.9 °F 50% 30.25 in 10.0 mi SSW 16.1 mph 21.9 mph N/A   Partly Cloudy
10:53 AM 43.0 °F 37.2 °F 24.1 °F 47% 30.23 in 10.0 mi SSE 10.4 mph - N/A   Partly Cloudy
11:53 AM 46.9 °F - 25.0 °F 42% 30.19 in 10.0 mi South 16.1 mph - N/A   Partly Cloudy
12:53 PM 51.8 °F - 26.6 °F 38% 30.14 in 10.0 mi South 17.3 mph - N/A   Partly Cloudy
1:53 PM 55.0 °F - 27.0 °F 34% 30.10 in 10.0 mi South 19.6 mph 25.3 mph N/A   Partly Cloudy
2:53 PM 55.9 °F - 27.0 °F 33% 30.07 in 10.0 mi South 15.0 mph 23.0 mph N/A   Partly Cloudy
3:53 PM 55.9 °F - 27.0 °F 33% 30.06 in 10.0 mi SSW 19.6 mph 24.2 mph N/A   Mostly Cloudy
4:53 PM 57.0 °F - 28.0 °F 33% 30.05 in 10.0 mi South 16.1 mph 27.6 mph N/A   Mostly Cloudy
5:53 PM 54.0 °F - 27.0 °F 35% 30.06 in 10.0 mi South 13.8 mph - N/A   Scattered Clouds
6:53 PM 52.0 °F - 28.0 °F 40% 30.06 in 10.0 mi South 16.1 mph - N/A   Partly Cloudy
7:53 PM 48.9 °F - 28.9 °F 46% 30.07 in 10.0 mi South 13.8 mph - N/A   Clear
8:53 PM 46.9 °F - 28.0 °F 48% 30.08 in 10.0 mi South 13.8 mph - N/A   Clear
9:53 PM 45.0 °F 38.5 °F 28.9 °F 53% 30.08 in 10.0 mi South 13.8 mph - N/A   Clear
10:53 PM 43.0 °F 38.8 °F 28.9 °F 58% 30.08 in 10.0 mi SSE 6.9 mph - N/A   Clear
11:53 PM 42.1 °F 36.6 °F 28.0 °F 58% 30.08 in 10.0 mi South 9.2 mph - N/A   Partly Cloudy